< < Back
Terminal Aerodrome Forecast


Current Version              Previous Versions:   1  2  3  4  5  6  7  8  9  

Terminal Aerodrome Forecast

573
FTUS42 KJAX 292003 AAA
TAFSSI
TAF AMD
KSSI 292003Z 2920/3018 08014G20KT P6SM VCSH BKN050 OVC080
     FM300100 07009KT P6SM VCSH SCT030 BKN070
     FM300900 06008KT P6SM VCSH BKN020 BKN060
     FM301300 08011G16KT P6SM VCSH BKN030 BKN050
     FM301700 09014G21KT P6SM VCSH SCT035 BKN060 BKN250=

Latest METAR

N/A

USA.gov is the U.S. government's official web portal to all federal, state and local government web resources and services.